Tracking 28794 objects as of 19-Apr-2024
HD Live streaming from Space Station
objects crossing your sky now

USA 274 DEB

Track USA 274 DEB now!
10-day predictions
USA 274 DEB is classified as:


NORAD ID: 42065
Int'l Code: 2017-011B
Perigee: 1,039.5 km
Apogee: 1,186.6 km
Inclination: 63.4 °
Period: 107.4 minutes
Semi major axis: 7484 km
RCS: Unknown
Launch date: March 1, 2017
Source: United States (US)
Launch site: AIR FORCE WESTERN TEST RANGE (AFWTR)

Note: This is SATELLITE DEBRIS
Your satellite tracking list
Your tracking list is empty




NASA's NSSDC Master Catalog

Two Line Element Set (TLE):
1 42065U 17011B   24106.79475608 0.00000000  00000-0  00000-0 0    09
2 42065  63.4394   9.6954 0098271   1.6046 358.3954 13.40915644    09
Source of the keplerian elements: McCants